When you browse on this site, cookies collect data to enhance your experience and personalize the content and advertising you see.
Visit our Privacy Policy to learn more. By continuing to use the site, you agree to this use of cookies and data.
  • En España
  • Lista de países
  • Para 7 días
  • Temperatura del agua
  • El tiempo en el mapa
  • Informadores
  • user-avatar
    Iniciar sesión

    Tiempo cada hora Maksym

    Hoy, 21 Septiembre, Sábado

    Tiempo Temperatura Precipitaciones Viento Presión Humedad
    00:00 +4°C° 0.1 mm 4 mps 754 mmHg 91%
    01:00 +4°C° 0.1 mm 4 mps 755 mmHg 89%
    02:00 +4°C° 0 mm 3 mps 755 mmHg 88%
    03:00 +4°C° 0 mm 3 mps 755 mmHg 90%
    04:00 +3°C° 0 mm 3 mps 755 mmHg 93%
    05:00 +2°C° 0 mm 3 mps 755 mmHg 96%
    06:00 +3°C° 0 mm 3 mps 756 mmHg 90%
    07:00 +3°C° 0 mm 3 mps 756 mmHg 85%
    08:00 +4°C° 0 mm 3 mps 756 mmHg 79%
    09:00 +6°C° 0 mm 4 mps 756 mmHg 67%
    10:00 +8°C° 0 mm 4 mps 756 mmHg 55%
    11:00 +11°C° 0 mm 4 mps 756 mmHg 43%
    12:00 +12°C° 0 mm 4 mps 755 mmHg 40%
    13:00 +13°C° 0 mm 4 mps 755 mmHg 38%
    14:00 +14°C° 0 mm 4 mps 755 mmHg 35%
    15:00 +13°C° 0 mm 4 mps 754 mmHg 39%
    16:00 +13°C° 0 mm 4 mps 754 mmHg 42%
    17:00 +13°C° 0 mm 4 mps 753 mmHg 46%
    18:00 +10°C° 0.3 mm 5 mps 753 mmHg 60%
    19:00 +9°C° 0.3 mm 5 mps 752 mmHg 73%
    20:00 +8°C° 0.3 mm 6 mps 752 mmHg 87%
    21:00 +9°C° 0.2 mm 6 mps 751 mmHg 89%
    22:00 +9°C° 0.2 mm 6 mps 751 mmHg 90%
    23:00 +10°C° 0.2 mm 6 mps 750 mmHg 91%

    Mañana, 22 Septiembre, Domingo

    Tiempo Temperatura Precipitaciones Viento Presión Humedad
    00:00 +10°C° 0.2 mm 6 mps 750 mmHg 91%
    01:00 +11°C° 0.2 mm 7 mps 750 mmHg 90%
    02:00 +11°C° 0.2 mm 7 mps 750 mmHg 90%
    03:00 +11°C° 0.1 mm 7 mps 750 mmHg 89%
    04:00 +11°C° 0.1 mm 7 mps 749 mmHg 88%
    05:00 +11°C° 0.1 mm 7 mps 749 mmHg 87%
    06:00 +11°C° 0 mm 7 mps 750 mmHg 85%
    07:00 +12°C° 0 mm 7 mps 750 mmHg 83%
    08:00 +12°C° 0 mm 7 mps 750 mmHg 81%
    09:00 +14°C° 0 mm 7 mps 750 mmHg 75%
    10:00 +15°C° 0 mm 7 mps 750 mmHg 68%
    11:00 +16°C° 0 mm 7 mps 750 mmHg 62%
    12:00 +17°C° 0 mm 7 mps 750 mmHg 59%
    13:00 +17°C° 0 mm 7 mps 750 mmHg 56%
    14:00 +18°C° 0 mm 7 mps 750 mmHg 53%
    15:00 +17°C° 0 mm 6 mps 750 mmHg 55%
    16:00 +17°C° 0 mm 5 mps 750 mmHg 58%
    17:00 +18°C° 0 mm 4 mps 750 mmHg 60%
    18:00 +15°C° 0.1 mm 4 mps 750 mmHg 68%
    19:00 +14°C° 0.1 mm 3 mps 750 mmHg 76%
    20:00 +13°C° 0.1 mm 3 mps 750 mmHg 84%
    21:00 +12°C° 0.4 mm 3 mps 751 mmHg 86%
    22:00 +10°C° 0.4 mm 4 mps 751 mmHg 87%
    23:00 +8°C° 0.4 mm 4 mps 752 mmHg 89%

    Pasado mañana, 23 Septiembre, Lunes

    Tiempo Temperatura Precipitaciones Viento Presión Humedad
    00:00 +9°C° 0.3 mm 3 mps 752 mmHg 88%
    01:00 +8°C° 0.3 mm 3 mps 753 mmHg 87%
    02:00 +8°C° 0.3 mm 2 mps 753 mmHg 86%
    03:00 +7°C° 0 mm 2 mps 753 mmHg 87%
    04:00 +6°C° 0 mm 2 mps 754 mmHg 88%
    05:00 +5°C° 0 mm 2 mps 754 mmHg 90%
    06:00 +6°C° 0 mm 2 mps 754 mmHg 84%
    07:00 +6°C° 0 mm 2 mps 755 mmHg 78%
    08:00 +7°C° 0 mm 3 mps 755 mmHg 72%
    09:00 +8°C° 0 mm 3 mps 755 mmHg 62%
    10:00 +9°C° 0 mm 3 mps 756 mmHg 52%
    11:00 +11°C° 0 mm 3 mps 756 mmHg 42%
    12:00 +13°C° 0 mm 2 mps 756 mmHg 39%
    13:00 +13°C° 0 mm 2 mps 755 mmHg 35%
    14:00 +14°C° 0 mm 2 mps 755 mmHg 32%
    15:00 +13°C° 0 mm 2 mps 755 mmHg 35%
    16:00 +12°C° 0 mm 2 mps 755 mmHg 38%
    17:00 +12°C° 0 mm 1 mps 755 mmHg 41%
    18:00 +9°C° 0 mm 2 mps 755 mmHg 45%
    19:00 +8°C° 0 mm 2 mps 755 mmHg 48%
    20:00 +6°C° 0 mm 2 mps 755 mmHg 52%
    21:00 +5°C° 0 mm 2 mps 755 mmHg 55%
    22:00 +5°C° 0 mm 2 mps 756 mmHg 58%
    23:00 +4°C° 0 mm 2 mps 756 mmHg 60%

    24 Septiembre, Martes

    Tiempo Temperatura Precipitaciones Viento Presión Humedad
    00:00 +4°C° 0 mm 2 mps 756 mmHg 62%
    01:00 +4°C° 0 mm 2 mps 756 mmHg 64%
    02:00 +3°C° 0 mm 2 mps 756 mmHg 66%
    03:00 +3°C° 0 mm 2 mps 755 mmHg 66%
    04:00 +3°C° 0 mm 2 mps 755 mmHg 67%
    05:00 +2°C° 0 mm 2 mps 755 mmHg 68%
    06:00 +4°C° 0 mm 2 mps 755 mmHg 63%
    07:00 +6°C° 0 mm 2 mps 755 mmHg 57%
    08:00 +7°C° 0 mm 3 mps 755 mmHg 52%
    09:00 +9°C° 0 mm 3 mps 755 mmHg 47%
    10:00 +11°C° 0 mm 3 mps 755 mmHg 41%
    11:00 +12°C° 0 mm 3 mps 755 mmHg 36%
    12:00 +13°C° 0 mm 3 mps 754 mmHg 35%
    13:00 +14°C° 0 mm 2 mps 754 mmHg 35%
    14:00 +15°C° 0 mm 2 mps 753 mmHg 34%
    15:00 +14°C° 0 mm 2 mps 753 mmHg 37%
    16:00 +14°C° 0 mm 2 mps 753 mmHg 40%
    17:00 +13°C° 0 mm 1 mps 753 mmHg 42%
    18:00 +12°C° 0 mm 2 mps 753 mmHg 44%
    19:00 +10°C° 0 mm 3 mps 753 mmHg 46%
    20:00 +9°C° 0 mm 3 mps 753 mmHg 48%
    21:00 +8°C° 0 mm 3 mps 753 mmHg 50%
    22:00 +7°C° 0 mm 3 mps 753 mmHg 51%
    23:00 +5°C° 0 mm 3 mps 753 mmHg 53%

    25 Septiembre, Miércoles

    Tiempo Temperatura Precipitaciones Viento Presión Humedad
    00:00 +5°C° 0 mm 3 mps 753 mmHg 54%
    01:00 +5°C° 0 mm 3 mps 752 mmHg 55%
    02:00 +4°C° 0 mm 3 mps 752 mmHg 56%
    03:00 +4°C° 0 mm 3 mps 752 mmHg 56%
    04:00 +4°C° 0 mm 3 mps 752 mmHg 57%
    05:00 +4°C° 0 mm 3 mps 752 mmHg 57%
    06:00 +5°C° 0 mm 3 mps 752 mmHg 53%
    07:00 +7°C° 0 mm 4 mps 752 mmHg 50%
    08:00 +8°C° 0 mm 4 mps 752 mmHg 47%
    09:00 +11°C° 0 mm 4 mps 752 mmHg 48%
    10:00 +13°C° 0 mm 4 mps 752 mmHg 49%
    11:00 +15°C° 0 mm 4 mps 752 mmHg 49%
    12:00 +17°C° 0 mm 4 mps 751 mmHg 51%
    13:00 +18°C° 0 mm 4 mps 751 mmHg 52%
    14:00 +19°C° 0 mm 4 mps 750 mmHg 53%
    15:00 +19°C° 0 mm 4 mps 750 mmHg 57%
    16:00 +18°C° 0 mm 3 mps 750 mmHg 60%
    17:00 +18°C° 0 mm 3 mps 749 mmHg 64%
    18:00 +17°C° 0 mm 3 mps 749 mmHg 66%
    19:00 +15°C° 0 mm 4 mps 749 mmHg 68%
    20:00 +14°C° 0 mm 4 mps 749 mmHg 70%
    21:00 +14°C° 0.1 mm 4 mps 749 mmHg 71%
    22:00 +14°C° 0.1 mm 3 mps 749 mmHg 73%
    23:00 +14°C° 0.1 mm 3 mps 749 mmHg 74%

    26 Septiembre, Jueves

    Tiempo Temperatura Precipitaciones Viento Presión Humedad
    00:00 +14°C° 0.1 mm 3 mps 748 mmHg 78%
    01:00 +14°C° 0.1 mm 2 mps 748 mmHg 82%
    02:00 +14°C° 0.1 mm 2 mps 748 mmHg 86%
    03:00 +14°C° 0.3 mm 2 mps 748 mmHg 86%
    04:00 +14°C° 0.3 mm 2 mps 748 mmHg 87%
    05:00 +14°C° 0.3 mm 2 mps 747 mmHg 87%
    06:00 +13°C° 0.3 mm 3 mps 747 mmHg 88%
    07:00 +13°C° 0.3 mm 4 mps 747 mmHg 88%
    08:00 +13°C° 0.3 mm 4 mps 747 mmHg 89%
    09:00 +13°C° 0.4 mm 5 mps 747 mmHg 90%
    10:00 +13°C° 0.4 mm 5 mps 747 mmHg 90%
    11:00 +13°C° 0.4 mm 5 mps 748 mmHg 91%
    12:00 +14°C° 0.3 mm 5 mps 747 mmHg 90%
    13:00 +14°C° 0.3 mm 5 mps 747 mmHg 90%
    14:00 +15°C° 0.3 mm 4 mps 747 mmHg 89%
    15:00 +14°C° 0.3 mm 4 mps 747 mmHg 89%
    16:00 +14°C° 0.3 mm 4 mps 747 mmHg 90%
    17:00 +14°C° 0.3 mm 4 mps 747 mmHg 90%
    18:00 +14°C° 0.3 mm 4 mps 747 mmHg 91%
    19:00 +13°C° 0.3 mm 3 mps 747 mmHg 93%
    20:00 +13°C° 0.3 mm 3 mps 747 mmHg 95%
    21:00 +13°C° 0.2 mm 3 mps 747 mmHg 94%
    22:00 +13°C° 0.2 mm 3 mps 747 mmHg 94%
    23:00 +13°C° 0.2 mm 3 mps 747 mmHg 94%
    Mostrar más